[sarex] 2 Line ISS Keps 1-21

Dave Larsen PhD doc at volcano.net
Wed Jan 21 13:42:19 PST 2009


ISS
1 25544U 98067A   09021.56829861  .00011449  00000-0  95875-4 0  1154
2 25544 051.6439 337.4961 0007734 291.5842 042.8070 15.70494216582886


More information about the SAREX mailing list